Theta_e
325 325 324 322 316 314 313 311 310 310 309 309 309 310 311 311 312 314 315 317 318 322 320 320 320 322 323 324 326 323 325 329 331 337 338 340 338 339 340 337 340 339 338 339 342 343 339 336 338 344 339 340 341 343
323 325 325 324 321 316 314 312 311 310 310 309 309 310 310 310 311 313 315 316 316 317 319 319 319 319 320 321 322 322 325 325 327 336 333 336 345 340 340 341 337 341 337 339 338 337 334 336 337 336 334 337 339 339
321 323 324 324 322 319 315 313 311 310 309 309 309 309 309 310 311 313 314 315 315 319 320 318 319 318 317 318 319 323 322 322 324 328 332 335 340 338 343 341 336 337 334 340 337 332 334 333 332 332 332 333 333 333
318 319 319 321 320 319 317 314 312 312 310 308 308 309 309 310 311 312 313 315 316 317 323 321 317 318 318 318 318 319 321 319 320 322 327 330 333 333 340 337 338 335 336 339 338 336 333 332 332 331 332 332 333 333
315 314 316 318 318 317 316 315 313 311 310 309 308 308 309 310 312 314 314 315 316 317 322 321 319 319 317 318 318 318 319 321 322 325 328 330 327 331 333 333 335 334 338 337 335 335 333 334 331 331 332 332 334 335
311 310 313 315 316 316 316 315 314 312 311 310 308 308 309 310 312 315 318 318 317 317 319 323 320 320 319 319 318 319 320 320 321 324 327 327 324 332 332 334 332 330 331 331 332 330 330 330 330 331 331 330 330 331
306 308 309 312 315 316 316 315 314 313 311 309 308 309 310 311 313 315 318 317 317 317 319 321 321 320 317 319 318 319 319 320 322 323 326 327 328 327 331 331 329 329 329 329 329 330 331 330 330 328 327 328 328 329
305 306 307 308 311 314 315 315 314 314 311 309 308 310 311 312 314 315 316 317 317 317 319 323 322 322 317 322 325 319 322 321 322 325 325 328 327 327 332 331 329 328 328 327 327 327 327 327 327 328 328 328 330 333
304 305 306 307 308 311 314 314 313 313 311 309 310 311 312 314 316 317 317 317 317 318 322 323 323 323 319 320 320 323 322 326 324 326 328 329 331 333 332 332 333 333 334 334 334 331 328 327 328 329 330 331 331 334
303 304 305 306 308 310 313 313 312 312 310 310 312 314 316 316 316 316 317 318 318 318 318 322 320 322 319 321 322 323 326 330 330 329 326 330 332 330 330 330 331 332 333 333 336 337 332 329 329 330 330 330 332 334
303 303 304 305 307 308 312 312 312 310 309 311 314 315 314 316 316 317 319 321 320 321 319 317 319 321 319 323 324 321 325 329 337 332 331 331 332 331 329 330 330 330 331 332 333 334 333 333 330 330 330 331 332 335
302 302 303 304 306 308 311 312 311 309 311 313 314 315 315 316 317 319 320 320 320 321 319 321 321 319 319 318 322 324 327 331 336 329 332 334 331 328 328 328 329 329 330 332 333 334 335 332 330 329 330 331 331 332
301 302 302 303 306 308 311 311 311 309 313 314 315 317 317 316 319 320 320 320 322 321 320 320 325 322 319 320 323 324 330 334 331 336 337 333 330 327 327 326 328 328 329 330 332 332 333 337 332 329 331 333 335 336
300 301 302 303 305 307 311 311 311 310 314 315 317 314 318 319 318 319 318 319 318 319 321 321 321 325 327 325 327 330 329 330 335 335 335 329 329 327 325 324 327 327 329 329 329 331 332 334 337 338 339 340 341 342
300 301 302 303 305 308 311 311 311 310 312 316 316 318 318 317 316 317 316 316 317 317 319 321 322 323 328 330 332 330 331 333 332 331 331 328 328 326 325 325 325 326 327 329 329 329 331 332 334 337 336 339 341 340
300 301 302 304 306 309 311 311 308 309 312 314 316 318 316 317 317 317 317 318 317 317 319 320 324 328 330 330 330 331 331 333 334 333 331 328 328 327 326 325 325 326 326 327 327 328 329 330 332 332 334 336 338 339
301 304 306 306 307 310 310 308 309 310 312 315 316 316 316 316 317 317 317 318 315 320 323 326 327 327 327 330 331 330 329 331 335 329 330 329 328 327 326 325 326 325 326 325 325 326 328 329 331 332 334 334 338 337
302 304 306 307 309 308 308 309 310 311 313 313 314 315 314 315 316 317 316 316 319 321 322 323 321 323 327 329 327 328 328 329 330 327 328 328 327 326 324 326 324 324 325 325 324 325 326 329 331 332 330 329 330 337
302 304 309 309 309 307 308 308 308 311 311 310 311 311 313 314 314 314 314 314 314 316 318 320 320 322 322 321 322 323 325 326 327 328 328 327 325 324 324 323 323 323 323 324 324 324 325 326 328 329 331 329 330 332
302 306 309 310 308 307 308 309 307 310 312 311 309 311 312 313 312 312 313 314 314 316 317 317 317 318 319 320 319 320 321 322 322 324 324 324 323 321 322 322 322 323 323 323 324 323 324 324 326 329 330 330 329 330
302 306 309 308 307 307 307 307 308 309 310 310 308 309 311 309 311 312 312 312 314 315 315 315 316 317 316 317 317 318 320 319 319 321 321 321 321 321 321 320 320 321 323 321 322 322 323 324 325 327 327 327 328 329
308 308 307 307 306 306 306 307 309 309 309 309 308 309 311 312 312 311 311 312 313 313 313 313 314 315 315 316 316 314 314 315 315 316 315 316 317 319 319 319 320 320 318 319 320 322 321 322 324 325 326 327 327 329
307 306 306 306 307 305 308 306 309 308 311 311 309 311 311 311 311 309 313 312 313 312 312 313 313 313 314 312 312 311 312 312 315 315 315 314 314 315 318 317 316 318 318 318 320 321 322 323 324 325 326 327 329 331
305 305 306 307 307 308 306 308 308 309 309 309 310 312 312 312 310 312 314 313 312 312 312 314 313 313 313 313 313 313 313 312 313 313 314 315 316 316 316 316 317 317 319 319 320 321 323 324 325 326 326 327 329 332
306 306 306 306 306 307 308 309 309 310 310 310 310 310 310 310 311 312 312 312 312 312 312 312 312 313 313 313 314 314 313 313 314 315 314 315 315 316 318 318 318 319 319 319 321 322 323 325 327 326 325 327 330 333
305 304 305 307 307 307 308 309 309 309 309 310 310 311 310 311 311 312 312 312 312 313 313 313 313 313 313 313 314 314 314 314 314 316 316 316 317 318 319 320 320 319 319 319 320 322 324 326 325 324 322 324 328 332
306 307 306 305 306 306 307 308 308 310 310 310 310 310 311 312 312 313 313 311 313 312 311 311 312 313 313 313 313 313 313 313 314 315 316 316 316 317 317 319 320 319 319 320 323 324 326 326 325 323 321 321 325 330
306 307 308 307 306 307 309 308 309 309 309 310 310 312 311 312 312 312 313 312 312 311 310 309 309 310 310 311 311 311 310 311 310 312 313 314 314 315 315 316 317 318 318 322 324 325 325 325 324 320 319 320 324 328
306 305 306 307 306 306 307 308 308 308 308 309 311 311 311 312 312 312 312 310 309 308 308 309 310 310 309 309 310 310 310 310 313 318 320 319 319 318 319 319 319 320 321 322 323 323 323 323 322 322 320 322 326 329
304 305 306 306 307 308 307 306 307 307 307 307 309 310 310 309 308 307 307 308 309 310 309 309 309 309 310 310 311 310 310 310 311 312 315 316 316 315 318 320 322 323 323 324 325 324 322 322 322 320 320 325 331 331
304 304 305 306 306 306 306 306 306 305 306 306 307 308 309 309 308 307 307 308 308 308 309 310 309 309 310 310 311 311 311 310 310 310 311 312 314 315 319 320 322 324 324 323 323 324 324 321 320 322 322 322 328 331
303 304 305 305 306 306 306 305 306 307 308 308 309 308 309 310 311 310 310 309 309 310 309 308 310 310 309 309 309 308 309 309 310 310 311 313 316 318 318 317 318 321 322 322 322 322 322 322 321 322 323 322 324 330
305 305 305 306 308 310 309 308 309 309 308 309 311 310 310 311 312 311 309 308 310 312 312 313 312 311 311 310 309 309 308 308 309 309 309 308 309 316 316 318 320 322 321 322 322 320 320 321 322 322 323 323 323 328
Wind_Speed
16 15 14 12 11 10 10 10 11 10 10 10 11 10 10 9 8 8 4 4 1 2 8 8 10 9 5 4 3 4 5 1 2 2 3 3 3 3 2 1 2 4 4 3 1 3 5 4 7 3 3 6 5 5
17 17 16 15 12 11 11 10 10 9 9 10 10 10 10 7 6 5 2 3 7 5 6 12 18 19 21 15 6 3 3 3 3 2 1 1 3 2 1 3 2 3 2 1 4 2 1 2 4 6 5 6 3 5
18 17 17 17 16 13 12 11 10 9 9 10 10 10 10 7 3 4 6 7 4 3 7 3 3 4 10 25 26 5 3 4 2 1 2 2 5 2 3 4 2 3 2 2 2 2 5 5 7 9 9 7 8 9
19 18 17 17 17 16 14 13 12 9 10 11 9 10 10 7 5 5 5 5 6 4 3 5 4 12 12 7 19 27 13 2 4 3 2 3 3 3 1 1 2 2 4 2 4 6 6 4 5 5 10 12 11 8
19 18 17 17 16 15 15 15 13 11 10 10 8 10 11 6 7 7 11 13 9 2 3 7 25 3 1 8 16 20 21 12 5 3 3 3 1 2 1 1 3 5 4 3 4 2 5 10 3 7 12 13 11 11
18 18 17 16 15 15 15 15 14 12 10 9 8 9 8 7 5 4 1 1 2 5 3 4 5 4 7 5 8 15 14 6 4 3 3 3 2 3 3 2 4 5 5 8 6 3 7 12 14 14 12 12 13 14
16 16 16 17 16 15 15 15 15 13 11 9 8 8 8 5 4 4 2 1 3 7 2 4 4 3 5 1 3 4 11 4 4 3 4 4 3 4 3 6 6 13 16 15 13 8 11 14 11 11 14 17 18 17
15 15 15 16 17 16 15 15 15 13 11 8 8 8 4 4 7 7 6 5 6 4 3 3 4 4 5 2 1 3 5 5 5 4 3 4 3 3 4 4 6 8 9 12 12 10 15 16 14 15 14 12 13 12
14 12 13 14 15 17 15 14 14 12 9 6 5 4 3 3 3 2 3 4 5 4 2 2 3 3 6 2 2 3 4 4 3 5 5 5 5 5 2 5 8 9 8 14 17 17 17 14 14 15 11 11 11 10
13 13 12 12 13 16 15 14 14 12 9 4 3 3 2 3 3 5 2 2 2 2 2 2 2 5 3 2 2 2 3 3 4 6 4 5 5 0 0 5 7 8 9 11 13 13 10 15 15 15 13 10 10 11
13 12 10 11 12 15 14 14 15 13 8 5 5 3 2 1 1 2 2 2 2 3 3 3 5 5 2 3 3 1 2 2 3 3 4 4 4 1 4 7 7 9 10 12 12 15 16 17 16 11 10 10 9 10
13 12 12 11 12 14 14 15 18 18 7 7 4 2 2 2 2 3 3 2 4 3 4 3 3 4 2 3 3 2 3 2 4 3 3 4 3 1 5 7 9 10 11 13 13 14 13 11 13 13 12 10 9 13
13 12 12 12 13 15 14 18 23 20 8 4 2 4 3 2 4 6 7 4 4 3 4 3 2 3 2 3 3 3 4 5 2 4 2 3 2 2 5 7 8 8 10 12 14 19 19 13 8 12 8 3 3 8
13 13 12 13 15 16 16 20 24 19 6 3 4 4 5 5 6 6 7 3 2 2 3 1 2 2 3 3 3 4 3 3 3 4 5 6 3 2 5 5 7 10 11 12 14 14 16 14 9 7 2 4 3 5
12 12 13 14 17 17 17 21 25 19 4 4 4 5 8 5 3 1 3 2 2 2 0 2 2 2 3 4 4 2 3 4 3 2 4 5 3 2 4 5 7 8 9 9 10 12 12 15 12 7 7 5 1 1
9 9 19 16 18 17 18 21 21 9 3 3 5 4 3 3 5 5 5 5 3 2 1 1 2 3 5 3 4 6 3 5 2 4 3 4 3 3 4 4 5 6 8 9 11 12 15 14 13 13 12 9 1 4
10 7 6 14 20 19 26 12 6 5 4 4 3 5 4 1 3 2 3 3 3 3 3 3 4 6 1 4 4 4 5 2 2 4 4 6 6 5 5 6 5 7 9 11 12 14 13 16 14 13 10 14 10 3
9 9 10 17 21 27 8 5 4 4 6 3 3 5 3 4 3 4 3 2 3 2 2 3 2 4 5 5 6 3 4 2 4 4 4 5 5 5 6 7 8 8 9 11 13 13 14 13 10 7 12 14 16 9
14 13 13 26 26 7 3 5 3 3 4 2 4 3 3 3 6 6 4 4 3 0 2 2 5 5 11 8 10 9 4 4 5 5 5 5 7 7 8 8 9 9 10 10 12 12 14 14 14 14 9 10 10 12
18 10 19 34 26 4 3 2 5 3 4 4 2 3 4 4 3 6 8 7 4 2 4 5 10 12 8 8 8 8 8 6 7 7 7 6 8 7 9 8 7 9 12 13 14 14 14 15 14 12 11 8 10 11
12 11 28 26 4 1 2 3 4 3 2 3 1 3 3 2 5 7 6 7 5 4 8 12 12 11 13 12 15 15 10 10 10 9 10 10 9 9 10 11 13 12 10 12 10 13 13 12 15 15 12 12 11 12
7 21 6 5 2 3 1 5 1 2 3 1 1 3 3 3 4 4 4 7 5 10 9 11 11 12 11 14 12 21 23 22 23 20 14 12 9 10 10 14 11 10 13 14 15 13 16 16 13 14 15 12 11 13
15 7 4 3 2 3 1 6 3 4 3 3 2 2 4 4 3 4 4 6 7 7 10 12 17 21 14 20 19 19 21 20 11 10 15 16 19 20 18 20 20 14 12 19 17 15 15 16 15 14 13 12 11 11
9 4 3 5 4 4 3 4 2 2 3 3 3 4 4 4 4 4 6 6 7 7 8 12 10 10 11 12 11 12 18 18 17 18 20 17 10 14 20 20 19 19 21 20 15 14 14 14 13 11 11 13 11 10
4 3 3 3 4 5 5 5 5 4 4 8 5 4 4 4 4 5 7 8 9 9 9 9 9 10 10 10 9 10 17 16 10 10 18 17 18 15 14 17 18 20 17 15 14 14 12 11 9 12 12 12 10 11
5 6 6 7 4 4 6 5 8 9 6 6 7 4 3 4 4 7 3 4 4 2 0 1 2 3 6 8 9 8 9 10 14 9 20 13 16 12 10 9 8 11 14 17 15 13 11 8 7 10 12 10 13 11
4 5 4 3 4 4 4 3 3 3 6 7 3 5 5 5 7 5 3 4 3 4 5 2 1 2 4 5 7 10 7 8 12 13 13 12 12 14 16 12 10 14 8 11 12 12 12 7 5 11 13 11 7 14
3 6 8 8 5 4 4 4 5 6 6 5 3 8 5 7 4 2 3 4 8 3 5 8 10 10 11 10 10 8 9 8 9 11 14 16 17 17 18 19 18 18 15 11 12 10 11 9 4 11 17 19 17 16
4 3 6 7 5 5 7 7 6 5 4 6 5 9 8 6 6 5 5 5 9 10 12 14 19 15 14 14 13 12 12 8 6 9 11 8 6 7 9 13 14 15 15 14 17 14 11 8 3 8 16 16 17 15
5 6 5 6 6 8 7 9 7 8 6 8 8 10 11 11 18 22 22 21 18 13 21 23 24 23 15 15 13 20 18 14 13 9 9 10 9 10 6 8 10 12 13 13 14 12 14 12 4 9 11 9 12 11
3 7 5 5 5 6 10 10 9 9 8 10 12 12 16 14 17 24 26 29 29 27 22 15 20 23 21 17 12 13 13 21 17 17 17 18 17 15 10 9 9 9 12 13 13 12 14 8 5 7 11 9 7 6
5 8 5 5 5 3 4 4 6 9 11 11 13 12 13 12 13 7 17 21 19 12 19 21 14 15 23 24 25 25 25 25 20 14 13 12 12 13 13 12 11 11 14 14 12 12 13 13 8 6 9 9 9 8
4 3 4 4 4 4 1 2 3 4 3 4 4 4 5 6 6 4 4 8 9 8 8 9 11 13 17 20 20 21 21 22 22 21 22 19 17 16 13 9 9 9 12 12 12 12 9 3 3 8 13 12 11 11
Wind_Direction
281 287 287 298 290 290 299 307 314 323 326 335 341 349 355 359 4 3 318 315 339 272 286 254 255 249 243 230 254 347 302 157 281 238 237 189 218 180 199 291 272 228 200 206 171 229 244 119 121 228 24 351 10 355
274 278 282 280 283 279 283 290 299 313 316 324 329 338 345 353 358 357 302 310 311 239 263 280 265 256 243 249 265 233 313 318 285 291 274 294 229 192 213 207 161 236 272 324 228 25 342 288 290 294 298 282 289 297
271 268 273 278 275 271 268 276 285 305 314 315 322 329 331 336 335 329 290 307 291 263 280 274 257 282 237 237 229 240 234 239 234 305 301 290 256 176 191 226 240 209 187 243 281 147 232 273 295 286 315 298 281 264
268 268 268 270 273 267 259 262 272 291 313 324 317 321 322 320 315 301 288 280 303 283 291 283 280 291 284 244 208 218 233 144 322 304 271 255 267 203 246 7 260 53 161 235 256 273 285 189 230 295 311 320 315 313
265 264 265 265 265 267 257 254 259 266 285 305 307 314 315 314 313 304 291 289 268 247 292 296 305 279 29 219 224 222 226 236 266 267 252 245 246 219 75 241 245 189 175 223 283 301 281 288 285 311 312 319 318 329
262 259 258 260 261 262 261 252 254 258 269 291 296 307 315 314 325 334 280 359 142 217 294 304 314 279 301 271 227 207 199 200 221 236 238 248 243 237 239 230 271 222 254 269 283 307 261 282 292 283 283 303 315 313
264 261 259 255 254 257 259 255 248 255 258 282 291 302 298 281 258 235 281 182 294 336 272 292 287 276 315 346 116 159 182 192 215 240 237 255 246 206 249 258 269 270 264 264 259 272 275 270 273 298 289 292 298 296
256 259 258 257 253 252 253 252 242 245 248 269 290 295 306 276 277 280 267 261 260 240 250 276 282 293 7 316 127 156 160 196 207 237 226 224 185 215 250 252 310 326 319 295 287 268 260 285 292 281 283 279 281 287
257 255 253 255 251 248 249 244 234 234 231 257 282 277 279 232 221 222 258 282 234 236 277 243 294 303 350 342 279 188 192 193 184 221 222 189 206 227 205 300 307 311 300 297 298 286 270 259 266 277 278 271 256 264
257 255 249 244 244 243 245 238 223 218 205 214 194 220 218 212 260 294 213 213 196 201 226 252 256 266 316 329 293 284 206 236 213 216 151 210 227 320 278 306 282 291 302 313 306 293 276 249 246 253 255 269 272 256
257 255 251 240 237 233 238 227 212 185 170 193 203 226 187 237 275 222 252 230 171 233 218 240 236 242 213 255 298 256 293 266 250 158 220 183 183 125 327 322 326 323 318 309 294 295 272 266 272 273 273 270 273 256
256 253 249 236 227 224 225 212 199 180 190 192 174 158 176 181 202 252 218 205 215 241 192 218 215 211 230 217 254 245 271 227 252 137 216 196 143 251 312 319 319 326 327 330 340 337 327 278 260 257 260 271 276 278
252 251 246 234 220 216 215 205 197 190 159 156 190 193 172 186 222 215 200 207 210 197 202 204 199 211 176 223 246 263 252 241 316 219 186 137 153 295 322 314 317 327 334 343 354 357 350 350 305 261 255 250 289 298
252 251 242 232 216 212 209 200 194 182 194 193 168 224 194 205 222 202 218 198 171 196 162 234 261 230 180 202 223 242 246 271 247 224 196 158 165 296 305 312 318 336 349 349 351 347 351 348 355 12 277 100 60 298
246 246 236 228 211 209 201 196 188 186 213 200 197 221 216 232 252 227 232 230 205 195 285 278 247 243 241 252 221 266 248 245 243 227 143 143 169 256 322 340 337 343 345 341 341 345 330 338 338 330 343 340 24 97
238 250 235 220 200 198 191 188 177 197 231 229 218 230 204 220 234 226 221 236 198 185 157 216 247 231 235 236 200 217 231 229 210 150 144 151 200 250 271 309 344 337 337 342 340 328 328 326 330 322 319 313 346 148
215 228 200 197 188 184 181 146 146 197 228 216 226 233 226 280 241 175 194 216 164 167 215 214 228 224 288 235 216 214 224 223 159 162 175 192 211 246 277 301 324 331 332 339 336 333 322 323 322 321 319 328 325 188
216 213 223 181 178 158 144 161 180 207 222 216 218 224 209 206 197 211 198 195 167 208 196 245 320 235 232 224 220 232 243 256 228 203 196 200 221 244 260 282 304 304 312 323 328 327 324 320 321 314 319 323 321 296
211 229 207 181 159 126 143 175 204 234 208 195 234 238 239 247 231 233 211 207 211 213 284 243 241 224 230 243 253 260 266 236 233 232 236 239 240 251 261 276 291 296 301 304 311 315 313 309 295 291 285 315 324 311
213 233 198 185 168 120 132 190 189 214 211 207 215 206 219 228 228 218 219 222 180 190 202 226 236 238 243 248 246 258 272 265 257 255 245 238 233 235 250 272 280 293 297 296 296 298 308 311 306 289 275 288 313 326
219 234 182 176 162 189 76 171 190 223 205 216 153 203 247 213 236 233 228 189 187 211 232 231 245 251 250 257 249 251 259 261 256 253 259 268 274 262 270 270 283 281 279 298 299 297 291 285 294 297 294 303 306 320
166 158 120 136 104 153 205 200 196 147 180 209 205 209 248 241 230 216 175 193 220 227 225 239 241 245 249 245 244 241 253 259 262 264 259 257 261 267 270 269 262 279 292 291 285 286 290 292 294 296 295 300 305 308
142 114 106 116 138 184 200 162 190 193 198 189 155 230 233 228 218 152 228 224 239 235 234 234 244 246 249 256 258 256 253 249 255 257 261 261 259 262 263 263 267 271 277 278 277 276 278 286 292 289 295 296 298 292
111 106 139 172 183 172 176 199 208 195 200 192 204 238 230 218 161 224 241 246 247 235 224 232 235 244 248 245 250 249 248 241 250 259 256 255 258 257 251 258 261 257 257 267 273 269 269 275 281 292 288 274 274 259
116 159 140 166 187 183 193 176 190 201 231 202 215 238 239 189 226 242 250 273 270 260 255 247 237 237 245 255 261 257 255 234 237 249 260 246 248 257 256 249 252 251 255 254 255 258 261 264 276 285 291 266 251 234
188 189 193 186 164 192 188 202 195 210 199 199 222 237 204 214 236 246 238 237 224 234 213 172 198 216 240 243 260 266 277 253 241 244 260 253 241 241 253 260 262 263 244 235 245 245 243 238 289 306 294 281 236 230
191 185 189 223 184 180 209 235 209 202 195 212 212 195 198 227 239 238 232 215 216 192 185 170 204 278 307 315 292 276 270 247 229 244 275 275 259 244 239 240 244 251 253 241 231 235 224 224 334 311 321 320 263 233
216 191 195 185 196 213 221 207 205 210 216 207 201 202 217 215 231 234 241 219 196 187 251 288 287 275 279 293 299 297 296 273 268 273 274 271 261 250 242 242 246 255 255 249 228 216 223 247 311 325 323 306 286 255
206 201 194 199 192 202 215 215 226 221 209 192 214 230 238 239 259 268 266 264 279 279 288 299 300 292 277 276 273 271 270 272 279 274 276 279 284 272 236 235 238 240 239 230 225 222 216 226 271 315 292 280 268 245
222 186 198 203 209 220 218 204 230 234 227 238 257 268 267 261 263 266 269 273 276 275 276 277 278 277 273 270 269 271 263 258 248 248 263 268 277 286 256 243 239 235 230 230 221 231 222 229 257 297 286 284 242 208
188 184 215 226 244 241 241 243 250 254 253 251 248 253 262 273 273 267 261 257 255 257 260 261 261 259 260 259 255 253 255 255 247 252 253 254 266 268 257 257 254 236 217 217 228 230 216 196 227 278 309 312 269 220
191 203 209 232 258 268 274 238 251 253 258 253 252 253 262 265 275 277 252 242 239 241 243 249 259 263 262 258 255 250 244 245 242 246 259 252 252 251 255 258 258 240 226 216 225 227 218 213 239 298 322 290 262 224
206 197 219 265 262 255 247 245 255 274 256 255 254 246 247 243 249 262 265 217 212 215 236 260 271 276 274 263 256 250 242 240 240 246 258 271 257 245 251 263 265 246 241 202 209 214 219 216 307 322 331 325 277 234